Doylestown, PA

7:13 AM EDT on July 26, 2017 (GMT -0400)
Doylestown

Weather History for KDYL - October, 2011

Change the Weather History Date:

Wednesday, October 12, 2011

  Actual Average (KTTN) Record (KTTN)
Temperature  
Mean Temperature 58 °F -  
Max Temperature 61 °F 63 °F 86 °F (1912)
Min Temperature 55 °F 44 °F 32 °F (1996)
Degree Days  
Heating Degree Days 8    
Growing Degree Days 8 (Base 50)    
Moisture  
Dew Point 54 °F    
Average Humidity 89    
Maximum Humidity 100    
Minimum Humidity 67    
Precipitation  
Precipitation 0.19 in - - ()
Sea Level Pressure  
Sea Level Pressure 30.04 in    
Wind  
Wind Speed 3 mph (NE)    
Max Wind Speed 7 mph    
Max Gust Speed -    
Visibility 8 miles    
Events Rain    
Averages and records for this station are not official NWS values.
T = Trace of Precipitation, MM = Missing Value Source: NWS Daily Summary

Daily Weather History Graph

Daily Weather History Graph

Search for Another Location

Airport or City:

Trip Planner

Search our weather history database for the weather conditions in past years. The results will help you decide how hot, cold, wet, or windy it might be!

Date:

Astronomy

Oct. 12, 2011 Rise Set
Actual Time 7:07 AM EDT 6:25 PM EDT
Civil Twilight 6:40 AM EDT 6:52 PM EDT
Nautical Twilight 6:08 AM EDT 7:24 PM EDT
Astronomical Twilight 5:37 AM EDT 7:55 PM EDT
Moon 6:26 PM EDT (10/12) 7:40 AM EDT (10/12)
Length of Visible Light 12h 12m
Length of Day
11h 17m
Full, 100% of the Moon is Illuminated
Oct 12
Full
Oct 19
Last Quarter
Oct 26
New
Nov 2
First Quarter
Nov 10
Full

Hourly Weather History & Observations

Time (EDT) Temp. Dew Point Humidity Pressure Visibility Wind Dir Wind Speed Gust Speed Precip Events Conditions
12:54 AM 60.1 °F 48.9 °F 67% 30.13 in 10.0 mi Calm Calm - N/A   Overcast
1:54 AM 59.0 °F 51.1 °F 75% 30.14 in 10.0 mi Calm Calm - N/A   Overcast
2:54 AM 59.0 °F 52.0 °F 78% 30.13 in 10.0 mi Calm Calm - N/A   Overcast
3:54 AM 57.9 °F 53.1 °F 84% 30.12 in 10.0 mi NNE 3.5 mph - N/A   Overcast
4:54 AM 57.9 °F 53.1 °F 84% 30.12 in 10.0 mi NNE 3.5 mph - N/A   Overcast
5:54 AM 57.0 °F 54.0 °F 89% 30.13 in 10.0 mi NNE 3.5 mph - 0.00 in Rain Light Rain
6:54 AM 55.9 °F 54.0 °F 93% 30.14 in 10.0 mi NE 4.6 mph - 0.01 in Rain Light Rain
7:54 AM 55.9 °F 54.0 °F 93% 30.13 in 10.0 mi NNE 4.6 mph - 0.01 in Rain Light Rain
8:54 AM 55.9 °F 54.0 °F 93% 30.13 in 10.0 mi NNE 3.5 mph - 0.01 in Rain Light Rain
9:54 AM 57.0 °F 55.0 °F 93% 30.12 in 9.0 mi NNE 5.8 mph - 0.00 in Rain Light Rain
10:54 AM 57.0 °F 55.0 °F 93% 30.10 in 10.0 mi NE 4.6 mph - 0.01 in Rain Light Rain
11:04 AM 57.2 °F 55.4 °F 94% 30.10 in 9.0 mi Variable 4.6 mph - 0.00 in Rain Light Rain
11:31 AM 57.2 °F 55.4 °F 94% 30.09 in 10.0 mi NE 5.8 mph - 0.00 in   Mostly Cloudy
11:54 AM 57.9 °F 54.0 °F 87% 30.09 in 10.0 mi Variable 6.9 mph - 0.00 in   Mostly Cloudy
12:54 PM 57.9 °F 53.1 °F 84% 30.07 in 9.0 mi Variable 5.8 mph - 0.00 in Rain Light Rain
1:54 PM 59.0 °F 51.1 °F 75% 30.04 in 10.0 mi Variable 6.9 mph - 0.00 in   Mostly Cloudy
2:35 PM 60.8 °F 51.8 °F 72% 30.02 in 10.0 mi Variable 5.8 mph - N/A   Overcast
3:54 PM 59.0 °F 52.0 °F 78% 29.99 in 10.0 mi Variable 3.5 mph - 0.01 in   Overcast
5:54 PM 57.9 °F 52.0 °F 81% 29.99 in 10.0 mi Variable 4.6 mph - N/A   Overcast
6:31 PM 57.2 °F 53.6 °F 88% 29.97 in 10.0 mi Variable 3.5 mph - N/A   Overcast
6:54 PM 57.0 °F 54.0 °F 89% 29.97 in 10.0 mi Variable 5.8 mph - N/A   Overcast
7:10 PM 57.2 °F 53.6 °F 88% 29.96 in 10.0 mi Variable 4.6 mph - N/A   Overcast
7:54 PM 57.0 °F 55.9 °F 96% 29.96 in 4.0 mi Variable 4.6 mph - 0.00 in Rain Light Rain
8:29 PM 57.2 °F 55.4 °F 94% 29.94 in 2.5 mi Variable 6.9 mph - 0.09 in Rain Rain
8:37 PM 57.2 °F 55.4 °F 94% 29.94 in 4.0 mi Variable 3.5 mph - 0.10 in Rain Light Rain
8:54 PM 57.0 °F 55.9 °F 96% 29.94 in 8.0 mi Variable 6.9 mph - 0.10 in   Overcast
9:54 PM 57.0 °F 55.9 °F 96% 29.94 in 5.0 mi Variable 5.8 mph - 0.01 in Rain Light Rain
10:31 PM 55.4 °F 55.4 °F 100% 29.93 in 3.0 mi NE 4.6 mph - 0.01 in   Overcast
10:38 PM 55.4 °F 55.4 °F 100% 29.93 in 2.0 mi NE 4.6 mph - 0.01 in Rain Light Rain
10:54 PM 55.0 °F 55.0 °F 100% 29.93 in 2.5 mi NE 5.8 mph - 0.02 in Rain Light Rain
11:54 PM 55.9 °F 55.0 °F 97% 29.90 in 3.0 mi NE 5.8 mph - 0.01 in   Overcast